#timestamp,LO_Frequency,Hit,StdDev 
1619154015.8,286046997.7,N
1619154035.6,286046996.6,N
1619154055.4,286046996.6,N
1619154075.3,286047000.5,N
1619154095.1,286046999.4,N
1619154115.9,286046996.7,N
1619154135.7,286046997.2,N
1619154155.5,286046998.9,N
1619154175.4,286046999.5,N
1619154195.2,286046999.1,N
1619154215.0,286046999.0,N
1619154216.0,286046999.0,N
1619154235.8,286046999.2,N
1619154255.6,286046995.5,Y
1619154275.5,286047000.8,P
1619154295.3,286047000.5,N
1619154315.1,286047000.8,N
1619154335.9,286047001.1,N
1619154355.7,286046998.5,N
1619154375.6,286047000.3,N
1619154395.4,286046996.6,Y
1619154415.2,286046997.8,P
1619154435.1,286046996.7,N
1619154436.0,286046996.7,N
1619154455.8,286046999.2,N
1619154475.7,286046996.9,N
1619154495.5,286047001.2,N
1619154515.3,286046996.5,N
1619154535.2,286046998.0,N
1619154555.0,286046994.9,Y
1619154555.9,286046994.9,P
1619154575.8,286046997.1,N
1619154595.6,286046999.1,N
1619154615.4,286047000.8,N
1619154635.3,286047001.2,N
1619154655.1,286046997.8,N
1619154675.8,286046996.6,N
1619154695.7,286046999.3,N
1619154715.5,286047000.6,N
1619154735.4,286047000.2,N
1619154755.2,286047002.5,N
1619154775.0,286047001.0,N
1619154775.9,286047001.0,N
1619154795.8,286047000.8,N
1619154815.6,286047000.4,N
1619154835.4,286046996.5,N
1619154855.3,286046999.1,N
1619154875.1,286046996.9,N
1619154895.9,286046998.1,N
1619154915.7,286046999.8,N
1619154935.6,286047002.2,N
1619154955.4,286047000.6,N
1619154975.2,286047003.5,N
1619154995.1,286047003.9,N
1619154996.0,286047003.9,N
1619155015.8,286047001.5,N
1619155035.7,286047000.3,N
1619155055.5,286047000.3,N
1619155075.3,286047000.3,N
1619155095.2,286046998.6,N
1619155115.0,286046997.3,N
1619155115.9,286046997.3,N
1619155135.7,286046995.5,N
1619155155.6,286046997.8,N
1619155175.4,286046999.5,N
1619155195.3,286046999.0,N
1619155215.1,286046999.2,N
1619155216.0,286046999.2,N
1619155235.8,286046996.7,N
1619155255.7,286046997.5,N
1619155275.5,286046996.5,N
1619155295.3,286046995.0,N
1619155315.2,286046995.3,N
1619155335.0,286046994.9,N
1619155335.9,286046994.9,N
1619155355.8,286046997.8,N
1619155375.6,286047000.0,N
1619155395.4,286046999.8,N
1619155415.3,286047000.6,N
1619155435.1,286046998.2,N
1619155455.9,286047001.2,N
1619155475.7,286047000.4,N
1619155495.5,286047002.8,N
1619155515.4,286047001.1,N
1619155535.2,286046999.1,N
1619155555.0,286046997.4,N
1619155555.9,286046997.4,N
1619155575.8,286046998.4,N
1619155595.6,286047000.6,N
1619155615.5,286046998.9,N
1619155635.3,286047000.8,N
1619155655.1,286047001.3,N
1619155675.9,286047003.5,N
1619155695.7,286047006.9,Y
1619155715.5,286047008.2,P
1619155735.4,286047009.0,N
1619155755.2,286047007.2,N
1619155775.1,286047003.7,N
1619155776.0,286047003.7,N
1619155795.8,286047002.6,N
1619155815.6,286047002.9,N
1619155835.5,286047004.3,N
1619155855.3,286047002.6,N
1619155875.1,286047002.1,N
1619155895.9,286047003.4,N
1619155915.7,286047005.5,N
1619155935.6,286047005.7,N
1619155955.4,286047011.9,Y
1619155975.2,286047000.1,P
1619155995.1,286046998.6,N
1619155996.0,286046998.6,N
1619156015.8,286046997.2,N
1619156035.6,286047000.7,N
1619156055.5,286046999.1,N
1619156075.3,286046995.7,N
1619156095.2,286046994.3,N
1619156115.9,286046994.6,N
1619156135.7,286046993.6,N
1619156155.6,286046996.6,N
1619156175.4,286046997.0,N
1619156195.2,286046995.3,N
1619156215.1,286046999.6,N
1619156216.0,286046999.6,N
1619156235.8,286046997.1,N
1619156255.7,286046998.4,N
1619156275.5,286046996.5,N
1619156295.3,286046996.4,N
1619156315.2,286046994.5,N
1619156335.0,286046998.0,N
1619156335.9,286046998.0,N
1619156355.7,286046995.6,N
1619156375.6,286046995.4,N
1619156395.4,286046997.6,N
1619156415.3,286046996.1,N
1619156435.1,286046993.8,N
1619156436.0,286046993.8,N
1619156455.8,286046995.8,N
1619156475.7,286046996.7,N
1619156495.5,286046996.5,N
1619156515.3,286047000.3,N
1619156535.2,286046999.4,N
1619156555.0,286046996.9,N
1619156555.9,286046996.9,N
1619156575.8,286046996.6,N
1619156595.6,286046998.8,N
1619156615.4,286046998.9,N
1619156635.3,286047000.0,N
1619156655.1,286046999.8,N
1619156675.8,286047000.9,N
1619156695.7,286046999.8,N
1619156715.5,286047001.8,N
1619156735.4,286047004.0,N
1619156755.2,286047000.8,N
1619156775.0,286046998.1,N
1619156775.9,286046998.1,N
1619156795.8,286046999.2,N
1619156815.6,286046997.6,N
1619156835.4,286046995.9,N
1619156855.3,286046995.3,N
1619156875.1,286046995.1,N
1619156895.9,286046997.6,N
1619156915.7,286046993.4,N
1619156935.5,286046996.0,N
1619156955.4,286046993.8,N
1619156975.2,286046994.4,N
1619156995.0,286046994.2,N
1619156995.9,286046994.2,N
1619157015.8,286046994.5,N
1619157035.6,286046994.1,N
1619157055.5,286046994.2,N
1619157075.3,286046992.2,N
1619157095.1,286046992.0,N
1619157115.9,286046991.8,N
1619157135.7,286046992.8,N
1619157155.5,286046992.3,N
1619157175.4,286046993.0,N
1619157195.2,286046994.8,N
1619157215.1,286046993.8,N
1619157216.0,286046993.8,N
1619157235.8,286046991.7,N
1619157255.6,286046994.4,N
1619157275.5,286046993.6,N
1619157295.3,286046995.9,N
1619157315.2,286046993.5,Y
1619157335.9,286046998.6,P
1619157355.7,286046997.0,N
1619157375.6,286046999.4,N
1619157395.4,286046999.0,N
1619157415.2,286046997.0,N
1619157435.1,286046998.6,N
1619157436.0,286046998.6,N
1619157455.8,286046998.8,N
1619157475.7,286046999.0,N
1619157495.5,286046997.8,N
1619157515.3,286046997.7,N
1619157535.2,286047000.7,N
1619157555.9,286046999.5,N
1619157575.7,286046998.8,N
1619157595.6,286046998.6,N
